RH
22 30 34 34 37 30 39 58 62 49 31 48 52 57 45 39 37 40 35 31 32 32 34 33 34 32 30 27 21 19 26 30 36 34 33 34 32 30 28 27 22 17 18 20
23 26 26 33 35 41 47 70 56 43 36 49 61 59 47 32 37 34 32 31 32 34 34 33 31 30 26 21 18 24 34 35 36 40 36 35 38 33 33 29 25 20 19 18
27 24 30 30 33 42 43 52 66 59 51 52 68 53 49 33 32 32 31 33 35 34 33 32 30 27 22 20 21 30 41 42 41 43 43 37 36 37 34 32 27 26 19 20
26 28 34 32 33 43 65 39 47 58 82 73 63 56 56 46 44 37 37 36 34 33 33 31 28 24 22 24 30 40 42 44 46 49 46 43 42 40 38 37 30 26 25 20
27 36 37 27 32 42 41 44 56 64 92 81 68 80 50 44 39 40 38 34 34 34 34 30 26 23 26 32 41 48 47 46 46 50 50 48 47 45 40 40 35 29 26 26
38 35 37 37 42 44 41 49 45 64 79 64 77 68 51 41 45 33 32 30 34 32 30 27 22 27 35 40 44 53 58 60 57 57 52 51 48 49 48 41 41 34 28 26
39 39 38 41 46 37 65 68 66 61 65 47 69 76 54 42 38 36 36 30 28 29 27 25 30 34 39 43 52 59 64 69 71 67 58 56 54 50 52 46 42 42 32 27
57 48 43 45 57 57 74 64 67 27 44 39 59 69 43 39 32 31 35 32 31 25 25 30 34 41 46 53 61 64 69 73 78 78 71 65 62 66 57 55 45 45 39 30
63 38 46 49 54 52 49 72 59 79 92 88 59 56 42 34 38 35 31 31 28 21 26 35 41 48 52 60 64 69 76 80 82 84 83 81 78 78 78 70 56 47 46 35
72 60 42 54 53 61 54 68 59 83 38 45 38 68 40 38 32 40 42 31 21 29 36 41 49 53 59 66 73 79 85 90 90 94 93 89 91 76 90 81 66 52 50 43
86 70 50 56 74 71 88 83 84 75 78 66 73 44 67 49 46 51 41 24 30 34 42 49 49 59 67 77 84 94 96 96 96 96 95 90 99 76 85 94 88 72 64 50
81 86 83 47 91 69 81 73 74 70 62 97 91 70 71 68 59 51 45 35 41 42 49 50 60 69 77 88 97 96 95 100 100 92 93 92 97 92 97 94 86 66 78 57
80 80 72 65 85 89 82 92 89 88 90 96 98 69 71 69 57 39 49 52 47 44 51 57 70 77 87 99 97 94 100 98 100 98 96 96 93 96 97 96 91 90 98 73
55 82 61 61 60 75 86 98 94 77 100 95 80 51 40 42 53 48 53 56 47 52 55 70 75 83 98 98 94 100 97 99 99 100 100 98 94 89 94 97 93 80 74 70
69 86 83 69 64 65 62 69 92 87 69 71 54 80 49 47 55 54 54 46 50 64 68 73 82 94 100 97 98 99 99 100 94 97 100 98 91 85 96 100 91 87 82 68
73 79 89 91 66 85 87 75 76 81 71 78 71 70 52 49 52 44 44 52 64 66 72 81 90 100 100 100 100 100 98 99 100 97 92 95 99 92 99 98 91 97 85 80
89 91 92 72 62 63 76 81 77 86 90 81 86 48 93 60 55 41 49 60 62 72 79 86 96 100 100 100 100 97 99 96 98 99 96 100 100 97 98 100 97 97 80 74
86 89 85 89 71 76 62 79 74 68 68 82 71 59 54 56 35 44 41 52 68 75 67 84 98 97 96 95 95 97 95 95 96 98 98 97 98 98 97 96 100 95 81 85
56 63 85 84 93 65 52 74 72 62 54 62 67 61 52 35 60 48 42 56 60 64 74 84 98 96 95 97 96 96 96 99 99 96 97 98 96 96 98 97 99 92 84 90
60 59 75 84 95 77 66 47 43 41 65 44 51 56 55 62 69 58 49 55 54 58 65 72 95 96 98 94 98 98 96 96 92 98 96 97 96 100 99 97 94 90 89 93
89 94 88 85 94 73 45 49 41 48 61 28 38 39 48 86 55 50 60 54 55 58 61 71 94 96 97 96 98 97 97 99 86 96 96 100 99 98 96 93 93 90 95 93
82 94 92 90 94 88 44 57 41 52 28 31 36 40 49 52 53 59 66 61 58 53 56 64 93 94 96 97 98 97 96 98 99 96 96 96 95 98 95 93 87 93 90 94
73 76 87 71 66 46 41 35 35 30 26 30 32 34 42 54 55 64 74 67 62 61 65 71 92 95 95 96 98 97 96 98 99 92 95 96 92 94 88 93 91 89 100 90
60 53 52 52 43 41 39 40 39 35 30 29 30 33 42 55 59 66 73 70 66 60 66 74 85 95 95 95 96 98 97 99 98 95 97 95 96 96 95 88 94 90 98 90
57 55 54 64 51 55 53 45 41 35 32 32 29 34 40 56 56 68 70 71 68 65 66 72 81 95 96 95 94 98 96 99 100 94 98 97 95 96 97 98 90 88 86 84
58 65 67 76 52 55 57 38 24 20 23 27 28 35 48 54 58 64 64 72 73 75 64 72 74 88 95 96 94 96 96 98 100 77 96 97 98 98 99 97 89 79 79 80
Wind_Speed
9 9 5 4 1 2 6 4 6 5 4 12 3 13 18 22 11 11 14 15 19 14 12 12 11 12 20 27 38 45 45 43 40 36 34 34 32 27 24 21 19 19 18 20
6 3 3 5 3 6 4 1 5 12 1 8 8 20 7 6 4 5 9 13 17 13 14 14 12 17 25 36 45 46 43 39 37 35 32 32 33 29 29 24 20 20 20 20
5 1 6 1 2 10 2 2 2 5 10 0 10 6 6 4 5 2 4 9 13 15 15 15 18 24 36 45 49 46 40 37 37 36 34 32 33 31 29 26 22 21 22 23
4 3 4 2 2 4 4 2 8 9 4 2 6 5 6 5 7 3 7 13 15 13 13 17 24 34 45 49 48 42 37 37 39 38 34 31 33 34 30 28 26 24 23 25
1 5 4 2 1 2 8 11 6 1 3 4 6 3 8 4 5 7 14 20 18 15 17 25 32 47 47 47 43 37 37 37 37 37 33 32 33 33 32 30 28 27 26 24
1 1 2 3 3 2 13 3 2 3 2 3 5 4 7 4 5 4 6 17 22 19 24 31 45 46 41 43 43 40 39 39 35 36 35 34 35 35 34 32 30 30 29 28
6 1 1 5 5 3 6 5 5 7 5 5 3 2 12 7 7 7 13 16 15 20 30 40 41 43 45 47 42 39 39 37 37 36 37 36 36 35 35 34 33 32 32 32
4 6 4 5 4 4 5 4 4 5 3 6 4 6 7 6 9 12 13 15 17 23 36 40 42 45 45 43 38 37 37 38 36 38 36 38 39 39 38 35 35 34 33 34
2 5 1 4 2 3 1 5 2 5 1 2 4 9 11 6 10 18 24 22 25 38 45 42 45 46 46 42 41 41 38 37 38 36 38 39 40 40 40 38 37 36 34 35
2 6 1 2 3 8 4 5 3 3 4 7 6 6 8 7 8 8 11 23 29 45 43 45 45 45 44 44 43 39 37 38 38 37 38 39 38 39 40 39 40 39 36 34
4 2 3 3 4 7 2 2 5 4 3 4 4 9 8 11 9 9 15 22 36 47 48 48 50 48 47 44 41 42 40 39 38 38 38 39 38 38 40 38 37 37 37 35
3 4 5 6 1 2 3 6 5 4 5 2 3 10 5 10 11 14 23 33 38 43 48 51 49 48 45 43 42 42 42 41 37 36 36 36 35 35 38 39 39 40 39 38
6 1 6 3 3 4 2 3 3 4 3 8 6 8 3 5 9 21 25 32 40 48 50 51 47 45 46 46 46 46 42 40 38 34 36 35 34 34 35 37 36 35 37 40
7 3 6 7 8 4 2 4 5 5 4 4 10 16 26 19 16 29 32 33 40 45 50 47 47 47 46 44 46 45 43 42 40 36 34 35 32 32 34 35 36 38 41 40
3 5 5 11 20 13 19 14 11 14 10 8 6 8 21 24 22 32 41 38 46 45 46 47 48 47 46 45 46 46 44 43 39 38 34 34 31 31 33 34 35 35 35 38
2 4 1 7 6 5 9 17 16 20 19 17 29 34 27 42 29 26 33 38 41 45 52 50 50 49 46 47 48 49 47 44 40 37 35 31 30 32 32 33 34 35 36 37
5 2 3 6 4 13 6 9 13 5 7 7 7 16 2 9 14 27 39 41 43 48 53 54 53 51 51 51 50 51 49 45 39 35 33 31 31 32 33 32 33 36 37 38
5 3 3 5 8 4 6 2 5 13 9 18 16 18 19 18 34 37 39 29 45 49 57 56 54 55 55 52 50 50 47 41 38 34 33 35 30 31 33 33 35 35 37 37
4 2 3 4 2 12 7 4 6 7 9 8 13 18 23 24 30 24 4 37 45 49 52 52 52 53 51 51 50 50 48 41 32 27 25 22 25 29 33 34 34 35 35 34
5 1 1 1 3 6 5 4 7 9 5 8 16 13 14 16 8 6 35 42 46 47 50 54 54 52 48 49 50 48 44 37 27 20 19 13 19 26 31 30 31 34 34 34
2 2 8 7 6 11 10 11 9 4 8 10 13 15 14 4 12 34 37 40 42 46 50 52 52 51 48 49 50 48 41 34 18 13 6 9 15 21 24 27 29 30 31 28
9 8 6 4 4 10 14 10 6 4 4 6 9 11 15 20 25 29 32 37 42 47 51 52 52 52 49 49 50 46 36 27 16 8 2 5 11 15 20 25 26 28 29 29
3 7 5 12 9 0 23 23 29 21 18 15 15 16 17 20 23 26 30 33 39 42 46 48 49 51 48 46 47 47 35 22 11 8 3 6 9 15 17 23 26 28 28 30
5 9 4 3 12 29 33 36 38 33 32 26 20 15 16 19 20 25 28 31 35 39 44 46 48 49 50 48 46 45 32 17 9 10 4 7 10 14 15 20 24 31 29 29
5 12 5 9 30 34 40 34 31 29 22 18 15 14 15 16 18 22 26 28 31 36 41 42 45 46 48 49 47 43 31 19 9 9 4 5 11 15 19 17 23 30 29 30
15 8 7 12 26 18 21 16 11 12 13 11 12 13 11 15 17 19 24 26 29 34 37 39 41 44 46 48 48 43 28 21 9 1 5 7 8 8 10 18 20 21 22 23
Wind_Direction
22 55 23 338 335 237 248 229 259 259 313 343 328 299 300 310 329 266 261 245 222 228 220 236 251 287 308 316 322 327 327 324 323 323 321 315 311 302 290 280 270 260 256 252
24 57 312 301 160 316 248 215 305 293 259 337 312 304 289 323 329 281 274 219 221 225 229 247 279 298 311 320 326 328 323 319 317 318 315 308 305 300 294 283 268 255 253 250
98 227 313 357 31 349 307 169 285 255 322 328 309 301 330 298 350 319 242 218 222 227 248 272 291 307 318 324 326 325 321 317 315 315 312 304 299 295 290 284 269 258 245 247
77 329 354 338 38 28 315 145 331 300 34 304 6 285 300 294 301 234 227 218 225 239 266 292 304 315 322 325 324 320 317 314 312 311 308 300 296 293 291 286 273 255 247 243
326 9 347 344 25 140 251 340 299 207 98 58 345 59 268 294 273 245 235 234 237 261 284 302 312 322 324 320 314 312 310 307 304 303 303 299 293 290 288 282 274 259 248 243
65 42 31 294 309 247 294 3 96 64 98 31 252 93 282 242 214 260 251 261 250 274 289 303 316 320 313 313 314 311 306 305 302 300 298 293 289 287 285 279 273 264 250 244
339 63 31 12 343 346 359 24 346 359 7 246 194 36 248 258 245 241 264 276 261 279 303 317 314 313 312 315 314 306 303 299 299 300 295 289 287 283 281 276 270 266 254 244
39 325 28 357 124 196 17 104 131 270 289 294 8 233 257 223 268 262 254 263 277 308 319 314 314 312 311 311 305 302 298 294 292 293 291 290 287 281 277 273 268 264 256 246
37 267 99 41 117 119 295 53 189 93 98 29 258 288 289 263 266 251 256 268 288 319 322 315 313 312 314 309 304 301 297 291 287 281 281 282 281 276 273 271 267 262 256 247
195 314 80 154 102 45 113 145 50 21 350 304 285 281 243 288 264 254 259 270 301 314 316 315 314 313 310 306 304 302 297 292 290 281 278 275 273 271 267 267 265 259 254 247
130 94 283 61 191 181 75 37 48 113 129 195 297 277 220 234 245 243 263 289 308 317 315 314 316 314 311 308 306 302 300 293 288 284 279 276 270 266 263 257 257 255 253 245
194 150 270 232 285 163 131 180 151 131 250 227 153 269 237 235 256 272 280 299 314 316 313 316 316 313 312 308 308 306 301 296 291 291 286 278 272 265 260 258 255 250 248 244
179 290 311 322 359 352 191 204 132 109 77 206 149 262 275 271 276 278 288 309 314 317 316 317 316 314 313 312 311 310 302 297 293 290 285 277 270 264 258 254 248 242 238 240
153 161 203 219 250 120 213 202 208 140 150 196 227 283 299 301 306 311 311 309 317 314 315 313 315 316 314 314 314 311 307 305 303 295 288 276 266 261 256 251 246 240 238 239
156 228 208 258 265 264 266 244 193 204 204 200 281 232 272 290 300 303 307 314 317 311 315 316 317 317 319 319 314 312 311 309 309 302 289 277 269 261 255 248 241 236 233 232
159 273 10 278 259 222 258 242 225 224 245 255 260 273 276 276 287 302 309 313 310 314 315 318 320 322 323 320 317 316 315 314 309 300 289 278 263 257 248 241 235 229 227 225
170 238 1 262 324 300 281 225 188 190 212 179 200 252 69 298 303 310 311 310 310 316 318 321 324 324 324 323 323 320 319 320 313 301 290 278 259 245 240 233 228 224 222 219
157 175 176 281 319 352 258 211 163 200 242 211 266 277 279 275 298 303 306 310 318 323 327 328 326 327 329 332 331 327 329 327 318 306 293 280 251 233 229 226 221 218 216 214
191 129 275 303 245 286 274 202 168 168 271 225 224 259 273 291 305 299 280 329 326 328 331 330 329 333 334 335 336 331 330 331 321 305 292 264 229 221 216 217 213 210 209 213
134 108 235 106 251 267 245 141 146 127 284 194 200 248 261 314 321 301 327 332 332 334 339 340 341 341 339 343 342 332 333 338 330 305 290 255 221 211 210 209 207 205 206 213
155 166 221 229 260 276 255 157 146 70 300 191 219 261 258 213 260 309 326 333 334 336 342 343 346 341 346 349 347 342 348 353 332 316 293 239 211 205 205 201 200 200 203 205
169 170 201 179 241 283 154 137 176 231 255 279 289 293 287 298 310 320 328 337 337 341 346 349 350 350 354 356 350 351 353 353 343 352 305 202 194 191 196 195 195 198 199 196
259 200 193 194 221 355 198 252 277 274 283 288 296 305 307 306 319 326 331 340 339 343 346 351 352 354 0 3 1 352 353 360 340 323 272 222 191 186 190 194 192 192 190 195
260 187 231 19 236 252 271 278 279 272 269 276 287 297 305 309 326 327 334 343 342 347 349 352 355 358 1 5 5 358 358 355 343 330 271 212 201 193 193 191 189 181 189 191
198 151 202 257 278 276 271 267 271 271 264 257 278 296 304 314 332 329 337 346 346 348 351 354 357 0 3 7 7 2 2 2 15 342 328 234 193 195 189 199 195 188 190 189
191 196 208 247 265 248 276 283 266 238 241 244 272 292 308 322 328 334 340 348 349 348 351 356 1 3 5 9 9 4 5 5 12 116 293 240 217 216 221 200 195 199 198 195